Middlesboro, KY

4:44 AM EDT on September 28, 2016 (GMT -0400)
Middlesboro

Weather History for K1A6 - April, 2014

Change the Weather History Date:

Tuesday, April 22, 2014

  Actual Average (KLOZ) Record (KLOZ)
Temperature  
Mean Temperature 64 °F 59 °F  
Max Temperature 72 °F 71 °F 87 °F (1963)
Min Temperature 56 °F 47 °F 31 °F (1986)
Degree Days  
Heating Degree Days 1 7  
Month to date heating degree days 225  
Since 1 July heating degree days 4050  
Cooling Degree Days 0 1  
Month to date cooling degree days 14  
Year to date cooling degree days 17  
Growing Degree Days 14 (Base 50)    
Moisture  
Dew Point 52 °F    
Average Humidity 72    
Maximum Humidity 92    
Minimum Humidity 33    
Precipitation  
Precipitation 0.02 in 0.14 in 1.05 in (1984)
Month to date precipitation 2.90  
Sea Level Pressure  
Sea Level Pressure 29.86 in    
Wind  
Wind Speed 2 mph (WNW)    
Max Wind Speed 14 mph    
Max Gust Speed 20 mph    
Visibility 10 miles    
Events Rain    
T = Trace of Precipitation, MM = Missing Value Source: NWS Daily Summary

Daily Weather History Graph

Daily Weather History Graph

Search for Another Location

Airport or City:

Trip Planner

Search our weather history database for the weather conditions in past years. The results will help you decide how hot, cold, wet, or windy it might be!

Date:

Astronomy

Apr. 22, 2014 Rise Set
Actual Time 5:52 AM CDT 7:15 PM CDT
Civil Twilight 5:24 AM CDT 7:42 PM CDT
Nautical Twilight 4:52 AM CDT 8:15 PM CDT
Astronomical Twilight 4:18 AM CDT 8:49 PM CDT
Moon 1:28 AM CDT (4/22) 12:26 PM CDT (4/22)
Length of Visible Light 14h 17m
Length of Day
13h 23m
Last Quarter, 46% of the Moon is Illuminated
Apr 22
Last Quarter
Apr 29
New
May 6
First Quarter
May 14
Full
May 21
Last Quarter

Hourly Weather History & Observations

Time (CDT) Temp. Dew Point Humidity Pressure Visibility Wind Dir Wind Speed Gust Speed Precip Events Conditions
12:15 AM 58.3 °F 50.0 °F 74% 29.93 in 10.0 mi Calm Calm - N/A   Scattered Clouds
12:35 AM 57.7 °F 50.5 °F 77% 29.92 in 10.0 mi Calm Calm - N/A   Mostly Cloudy
12:55 AM 58.3 °F 50.0 °F 74% 29.92 in 10.0 mi Calm Calm - N/A   Overcast
1:15 AM 58.5 °F 50.4 °F 74% 29.91 in 10.0 mi Calm Calm - N/A   Overcast
1:35 AM 58.1 °F 50.2 °F 75% 29.91 in 10.0 mi Calm Calm - N/A   Overcast
1:55 AM 58.5 °F 50.7 °F 75% 29.90 in 10.0 mi Calm Calm - N/A   Overcast
2:15 AM 57.4 °F 51.3 °F 80% 29.90 in 10.0 mi Calm Calm - N/A   Overcast
2:35 AM 57.7 °F 51.4 °F 79% 29.89 in 10.0 mi Calm Calm - N/A Rain Light Rain
2:55 AM 57.6 °F 52.9 °F 84% 29.88 in 10.0 mi Calm Calm - N/A Rain Light Rain
3:15 AM 56.3 °F 54.0 °F 92% 29.88 in 10.0 mi Calm Calm - N/A   Overcast
3:55 AM 57.0 °F 52.9 °F 86% 29.87 in 10.0 mi Calm Calm - N/A   Overcast
4:15 AM 56.7 °F 54.0 °F 91% 29.87 in 10.0 mi Calm Calm - N/A   Overcast
4:35 AM 57.0 °F 53.6 °F 88% 29.87 in 10.0 mi Calm Calm - N/A   Overcast
4:55 AM 56.7 °F 53.8 °F 90% 29.86 in 10.0 mi Calm Calm - N/A   Overcast
5:15 AM 56.3 °F 53.4 °F 90% 29.86 in 10.0 mi Calm Calm - N/A   Mostly Cloudy
5:35 AM 56.7 °F 53.1 °F 88% 29.86 in 10.0 mi Calm Calm - N/A   Overcast
5:55 AM 56.3 °F 53.2 °F 89% 29.86 in 10.0 mi Calm Calm - N/A   Overcast
6:15 AM 56.3 °F 53.1 °F 89% 29.87 in 10.0 mi Calm Calm - N/A   Overcast
6:35 AM 56.1 °F 52.9 °F 89% 29.87 in 10.0 mi Calm Calm - N/A   Overcast
6:55 AM 57.0 °F 53.1 °F 87% 29.87 in 10.0 mi Calm Calm - N/A   Overcast
7:15 AM 57.2 °F 53.6 °F 88% 29.87 in 10.0 mi Calm Calm - N/A   Overcast
7:35 AM 58.8 °F 53.6 °F 83% 29.87 in 10.0 mi Calm Calm - N/A   Overcast
7:55 AM 59.9 °F 54.5 °F 82% 29.87 in 10.0 mi Calm Calm - N/A   Overcast
8:15 AM 61.3 °F 54.9 °F 79% 29.87 in 10.0 mi Calm Calm - N/A   Overcast
8:35 AM 65.8 °F 54.0 °F 65% 29.87 in 10.0 mi West 5.8 mph - N/A Rain Light Rain
8:55 AM 63.9 °F 55.6 °F 74% 29.87 in 10.0 mi West 3.5 mph - N/A Rain Rain
9:15 AM 63.7 °F 56.5 °F 77% 29.87 in 10.0 mi Calm Calm - N/A   Overcast
9:35 AM - - N/A% 29.87 in 10.0 mi WNW 3.5 mph - N/A   Overcast
9:55 AM - - N/A% 29.87 in 10.0 mi Calm Calm - N/A Rain Light Rain
10:15 AM 63.9 °F 55.9 °F 75% 29.88 in 10.0 mi WSW 8.1 mph - N/A   Overcast
10:35 AM - - N/A% 29.88 in 10.0 mi SW 3.5 mph - N/A   Drizzle
10:55 AM 64.6 °F 56.8 °F 76% 29.88 in 10.0 mi WNW 6.9 mph - N/A   Overcast
11:15 AM 64.4 °F 56.8 °F 76% 29.88 in 10.0 mi West 4.6 mph - N/A   Overcast
11:35 AM 63.9 °F 57.2 °F 79% 29.87 in 10.0 mi West 4.6 mph - N/A   Overcast
11:55 AM 62.4 °F 58.3 °F 86% 29.87 in 4.0 mi Calm Calm - 0.02 in Rain Light Rain
12:15 PM 62.1 °F 58.5 °F 88% 29.87 in 10.0 mi Calm Calm - N/A   Overcast
12:35 PM 62.6 °F 59.2 °F 89% 29.86 in 10.0 mi Calm Calm - N/A Rain Rain
12:55 PM 63.5 °F 59.0 °F 85% 29.86 in 10.0 mi Calm Calm - N/A   Overcast
1:15 PM 64.8 °F 58.8 °F 81% 29.85 in 10.0 mi NW 4.6 mph - N/A   Overcast
1:35 PM - - N/A% 29.85 in 10.0 mi South 3.5 mph - N/A   Overcast
1:55 PM - - N/A% 29.85 in 10.0 mi Calm Calm - N/A   Overcast
2:15 PM - - N/A% 29.84 in 10.0 mi West 8.1 mph - N/A   Overcast
2:35 PM 68.9 °F 58.8 °F 70% 29.84 in 10.0 mi WNW 8.1 mph - N/A   Mostly Cloudy
2:55 PM - - N/A% 29.82 in 10.0 mi WNW 6.9 mph - N/A   Mostly Cloudy
3:15 PM 69.8 °F 57.0 °F 64% 29.81 in 10.0 mi WNW 6.9 mph - N/A   Scattered Clouds
3:35 PM - - N/A% 29.80 in 10.0 mi WNW 9.2 mph - N/A   Scattered Clouds
3:55 PM 72.3 °F 56.8 °F 58% 29.80 in 10.0 mi WSW 6.9 mph - N/A   Mostly Cloudy
4:15 PM 71.2 °F 56.1 °F 59% 29.80 in 10.0 mi WNW 5.8 mph - N/A   Overcast
4:35 PM 70.9 °F 55.9 °F 59% 29.79 in 10.0 mi Calm Calm - N/A   Mostly Cloudy
4:55 PM 70.7 °F 56.1 °F 60% 29.79 in 10.0 mi Calm Calm - N/A   Overcast
5:15 PM 69.1 °F 59.7 °F 72% 29.80 in 10.0 mi West 3.5 mph - N/A Rain Light Rain
5:35 PM 68.9 °F 58.5 °F 69% 29.79 in 10.0 mi Calm Calm - N/A   Mostly Cloudy
5:55 PM 70.0 °F 56.5 °F 62% 29.79 in 10.0 mi West 3.5 mph - N/A   Scattered Clouds
6:15 PM 70.0 °F 56.1 °F 61% 29.79 in 10.0 mi Calm Calm - N/A   Clear
6:35 PM 69.8 °F 54.7 °F 59% 29.80 in 10.0 mi WNW 3.5 mph - N/A   Clear
6:55 PM 66.6 °F 57.6 °F 73% 29.80 in 10.0 mi West 3.5 mph - N/A   Clear
7:15 PM 65.1 °F 56.7 °F 74% 29.81 in 10.0 mi West 3.5 mph - N/A   Scattered Clouds
7:35 PM 65.7 °F 54.0 °F 66% 29.82 in 10.0 mi NW 6.9 mph - N/A   Scattered Clouds
7:55 PM 66.7 °F 52.9 °F 61% 29.83 in 10.0 mi NW 9.2 mph - N/A   Mostly Cloudy
8:15 PM 67.1 °F 51.8 °F 58% 29.84 in 10.0 mi North 10.4 mph - N/A   Mostly Cloudy
8:35 PM 65.5 °F 52.0 °F 62% 29.85 in 10.0 mi North 5.8 mph - N/A   Scattered Clouds
9:15 PM 65.3 °F 47.5 °F 52% 29.87 in 10.0 mi NNW 9.2 mph - N/A   Scattered Clouds
9:55 PM 63.7 °F 44.8 °F 50% 29.87 in 10.0 mi North 8.1 mph 17.3 mph N/A   Scattered Clouds
10:15 PM 62.1 °F 43.5 °F 51% 29.88 in 10.0 mi NNW 8.1 mph - N/A   Clear
10:35 PM 61.9 °F 39.2 °F 43% 29.90 in 10.0 mi North 13.8 mph 19.6 mph N/A   Clear
10:55 PM 60.8 °F 33.4 °F 36% 29.90 in 10.0 mi North 11.5 mph 17.3 mph N/A   Clear
11:15 PM 60.6 °F 30.9 °F 33% 29.91 in 10.0 mi NNW 9.2 mph 18.4 mph N/A   Clear
11:35 PM 58.5 °F 31.8 °F 37% 29.91 in 10.0 mi NNW 6.9 mph - N/A   Clear
11:55 PM 57.7 °F 31.8 °F 37% 29.92 in 10.0 mi NNW 6.9 mph - N/A   Clear